| time (UTC) | temp F | wind direction | speed MPH | gust MPH | rain 1hr in | rain 24hr in | rain mn in | humidity % | barometer mb |
| 20260504191156 | 78 | 184 | 5.0 | 7.0 | 0.00 | 0.00 | 0.00 | 65 | 1013.0 |
| 20260504190652 | 78 | 163 | 0.0 | 2.0 | 0.00 | 0.00 | 0.00 | 64 | 1013.1 |
| 20260504190149 | 79 | 214 | 8.0 | 14.0 | 0.00 | 0.00 | 0.00 | 64 | 1013.0 |
| 20260504185645 | 80 | 180 | 10.0 | 14.0 | 0.00 | 0.00 | 0.00 | 64 | 1013.0 |
| 20260504185142 | 79 | 262 | 7.0 | 12.0 | 0.00 | 0.00 | 0.00 | 65 | 1013.2 |
| 20260504184638 | 78 | 204 | 7.0 | 12.0 | 0.00 | 0.00 | 0.00 | 65 | 1013.3 |
| 20260504184132 | 79 | 213 | 12.0 | 14.0 | 0.00 | 0.00 | 0.00 | 63 | 1013.2 |
| 20260504183630 | 79 | 237 | 14.0 | 17.0 | 0.00 | 0.00 | 0.00 | 63 | 1013.3 |
| 20260504183127 | 78 | 221 | 6.0 | 10.0 | 0.00 | 0.00 | 0.00 | 65 | 1013.2 |
| 20260504182625 | 77 | 245 | 9.0 | 12.0 | 0.00 | 0.00 | 0.00 | 65 | 1013.3 |
| 20260504182122 | 77 | 230 | 8.0 | 14.0 | 0.00 | 0.00 | 0.00 | 66 | 1013.7 |
| 20260504181620 | 77 | 244 | 10.0 | 12.0 | 0.00 | 0.00 | 0.00 | 65 | 1013.6 |
| 20260504181117 | 79 | 255 | 8.0 | 15.0 | 0.00 | 0.00 | 0.00 | 63 | 1013.7 |
| 20260504180616 | 77 | 215 | 5.0 | 5.0 | 0.00 | 0.00 | 0.00 | 69 | 1013.9 |
| 20260504180115 | 78 | 240 | 12.0 | 15.0 | 0.00 | 0.00 | 0.00 | 64 | 1013.8 |
| 20260504175611 | 78 | 217 | 11.0 | 15.0 | 0.00 | 0.00 | 0.00 | 65 | 1014.0 |
| 20260504175108 | 78 | 177 | 7.0 | 10.0 | 0.00 | 0.00 | 0.00 | 65 | 1014.2 |
| 20260504174606 | 77 | 188 | 6.0 | 7.0 | 0.00 | 0.00 | 0.00 | 68 | 1014.1 |
| 20260504174102 | 77 | 173 | 6.0 | 10.0 | 0.00 | 0.00 | 0.00 | 68 | 1014.2 |
| 20260504173559 | 76 | 193 | 9.0 | 10.0 | 0.00 | 0.00 | 0.00 | 67 | 1014.3 |
| 20260504173057 | 77 | 208 | 5.0 | 9.0 | 0.00 | 0.00 | 0.00 | 67 | 1014.4 |
| 20260504172553 | 75 | 217 | 8.0 | 12.0 | 0.00 | 0.00 | 0.00 | 68 | 1014.2 |
| 20260504172050 | 75 | 208 | 8.0 | 10.0 | 0.00 | 0.00 | 0.00 | 68 | 1014.4 |
| 20260504171546 | 75 | 225 | 6.0 | 7.0 | 0.00 | 0.00 | 0.00 | 68 | 1014.4 |
| 20260504171043 | 76 | 224 | 13.0 | 15.0 | 0.00 | 0.00 | 0.00 | 67 | 1014.4 |
| 20260504170539 | 76 | 217 | 14.0 | 19.0 | 0.00 | 0.00 | 0.00 | 66 | 1014.4 |
| 20260504150923 | 72 | 205 | 8.0 | 12.0 | 0.00 | 0.00 | 0.00 | 68 | 1015.6 |
| 20260504150420 | 71 | 179 | 3.0 | 5.0 | 0.00 | 0.00 | 0.00 | 70 | 1015.5 |
| 20260504140846 | 68 | 170 | 6.0 | 10.0 | 0.00 | 0.00 | 0.00 | 72 | 1015.8 |
| 20260504140342 | 68 | 201 | 5.0 | 7.0 | 0.00 | 0.00 | 0.00 | 72 | 1015.5 |
| 20260504130811 | 62 | 178 | 1.0 | 3.0 | 0.00 | 0.00 | 0.00 | 81 | 1015.5 |
| 20260504130307 | 62 | 145 | 2.0 | 3.0 | 0.00 | 0.00 | 0.00 | 82 | 1015.5 |
| 20260504120231 | 58 | 147 | 1.0 | 2.0 | 0.00 | 0.00 | 0.00 | 86 | 1015.0 |
| 20260504110658 | 59 | 157 | 2.0 | 3.0 | 0.00 | 0.00 | 0.00 | 85 | 1015.0 |
| 20260504110154 | 59 | 159 | 1.0 | 2.0 | 0.00 | 0.00 | 0.00 | 85 | 1015.0 |
| 20260504100119 | 60 | 174 | 4.0 | 7.0 | 0.00 | 0.00 | 0.00 | 83 | 1015.6 |
| 20260504081512 | 61 | 159 | 2.0 | 2.0 | 0.00 | 0.00 | 0.00 | 82 | 1015.9 |
| 20260504081007 | 61 | 166 | 1.0 | 2.0 | 0.00 | 0.00 | 0.00 | 82 | 1016.0 |
| 20260504080504 | 61 | 159 | 2.0 | 3.0 | 0.00 | 0.00 | 0.00 | 82 | 1016.0 |
| 20260504050317 | 64 | 153 | 2.0 | 3.0 | 0.00 | 0.00 | 0.00 | 72 | 1017.8 |
| 20260504045814 | 64 | 145 | 4.0 | 5.0 | 0.00 | 0.00 | 0.00 | 72 | 1017.9 |
| 20260504045314 | 64 | 143 | 6.0 | 9.0 | 0.00 | 0.00 | 0.00 | 72 | 1018.0 |
| 20260504044812 | 64 | 154 | 4.0 | 9.0 | 0.00 | 0.00 | 0.00 | 72 | 1017.9 |
| 20260504044309 | 64 | 175 | 4.0 | 5.0 | 0.00 | 0.00 | 0.00 | 71 | 1017.9 |
| 20260504043806 | 64 | 166 | 5.0 | 7.0 | 0.00 | 0.00 | 0.00 | 71 | 1018.0 |
| 20260504043303 | 64 | 138 | 2.0 | 2.0 | 0.00 | 0.00 | 0.00 | 70 | 1017.9 |
| 20260504042801 | 64 | 150 | 2.0 | 3.0 | 0.00 | 0.00 | 0.00 | 70 | 1018.2 |
| 20260504042257 | 64 | 171 | 6.0 | 9.0 | 0.00 | 0.00 | 0.00 | 70 | 1018.0 |
| 20260504041753 | 64 | 158 | 3.0 | 5.0 | 0.00 | 0.00 | 0.00 | 70 | 1018.0 |
| 20260504041249 | 64 | 135 | 5.0 | 7.0 | 0.00 | 0.00 | 0.00 | 69 | 1018.0 |
| 20260504040745 | 63 | 155 | 5.0 | 7.0 | 0.00 | 0.00 | 0.00 | 70 | 1018.2 |
| 20260504040243 | 63 | 158 | 2.0 | 3.0 | 0.00 | 0.00 | 0.00 | 72 | 1018.0 |
| 20260504035739 | 62 | 151 | 0.0 | 0.0 | 0.00 | 0.00 | 0.00 | 74 | 1018.2 |
| 20260504035236 | 61 | 148 | 0.0 | 0.0 | 0.00 | 0.00 | 0.00 | 75 | 1018.2 |
| 20260504034734 | 61 | 141 | 0.0 | 0.0 | 0.00 | 0.00 | 0.00 | 77 | 1018.1 |
| 20260504034231 | 61 | 136 | 1.0 | 2.0 | 0.00 | 0.00 | 0.00 | 77 | 1018.1 |
| 20260504033728 | 61 | 138 | 2.0 | 2.0 | 0.00 | 0.00 | 0.00 | 76 | 1018.0 |
| 20260504033226 | 62 | 138 | 2.0 | 2.0 | 0.00 | 0.00 | 0.00 | 76 | 1018.1 |
| 20260504032723 | 62 | 145 | 1.0 | 2.0 | 0.00 | 0.00 | 0.00 | 75 | 1018.1 |
| 20260504032220 | 61 | 138 | 2.0 | 2.0 | 0.00 | 0.00 | 0.00 | 77 | 1018.1 |
| 20260504031716 | 62 | 135 | 2.0 | 3.0 | 0.00 | 0.00 | 0.00 | 77 | 1017.9 |
| 20260504031214 | 62 | 131 | 3.0 | 3.0 | 0.00 | 0.00 | 0.00 | 75 | 1017.8 |
| 20260504030704 | 62 | 137 | 2.0 | 2.0 | 0.00 | 0.00 | 0.00 | 75 | 1018.1 |
| 20260504030202 | 63 | 126 | 2.0 | 3.0 | 0.00 | 0.00 | 0.00 | 74 | 1018.1 |
| 20260504025658 | 63 | 134 | 2.0 | 3.0 | 0.00 | 0.00 | 0.00 | 72 | 1017.9 |
| 20260504025155 | 64 | 138 | 2.0 | 2.0 | 0.00 | 0.00 | 0.00 | 71 | 1018.0 |
| 20260504024652 | 65 | 134 | 3.0 | 3.0 | 0.00 | 0.00 | 0.00 | 68 | 1018.0 |
| 20260504024148 | 65 | 135 | 2.0 | 3.0 | 0.00 | 0.00 | 0.00 | 66 | 1018.1 |
| 20260504023645 | 66 | 134 | 2.0 | 2.0 | 0.00 | 0.00 | 0.00 | 66 | 1018.0 |
| 20260504023141 | 66 | 145 | 2.0 | 2.0 | 0.00 | 0.00 | 0.00 | 66 | 1018.1 |
| 20260504022637 | 66 | 143 | 2.0 | 3.0 | 0.00 | 0.00 | 0.00 | 65 | 1017.9 |
| 20260504022133 | 65 | 144 | 2.0 | 2.0 | 0.00 | 0.00 | 0.00 | 67 | 1017.8 |
| 20260504021632 | 65 | 135 | 2.0 | 2.0 | 0.00 | 0.00 | 0.00 | 68 | 1017.6 |
| 20260504021128 | 65 | 136 | 1.0 | 2.0 | 0.00 | 0.00 | 0.00 | 68 | 1017.6 |
| 20260504020625 | 65 | 141 | 2.0 | 2.0 | 0.00 | 0.00 | 0.00 | 67 | 1017.6 |
| 20260504020121 | 65 | 142 | 1.0 | 2.0 | 0.00 | 0.00 | 0.00 | 68 | 1017.5 |
| 20260504015618 | 65 | 143 | 2.0 | 3.0 | 0.00 | 0.00 | 0.00 | 68 | 1017.7 |
| 20260504015114 | 67 | 145 | 2.0 | 2.0 | 0.00 | 0.00 | 0.00 | 67 | 1017.5 |
| 20260504014610 | 68 | 135 | 2.0 | 3.0 | 0.00 | 0.00 | 0.00 | 62 | 1017.3 |
| 20260504014107 | 68 | 147 | 1.0 | 2.0 | 0.00 | 0.00 | 0.00 | 60 | 1017.5 |
| 20260504013605 | 68 | 141 | 2.0 | 2.0 | 0.00 | 0.00 | 0.00 | 59 | 1017.4 |
| 20260504013101 | 69 | 159 | 2.0 | 3.0 | 0.00 | 0.00 | 0.00 | 58 | 1017.3 |
| 20260504012559 | 69 | 150 | 1.0 | 2.0 | 0.00 | 0.00 | 0.00 | 58 | 1017.4 |
| 20260504012057 | 69 | 141 | 2.0 | 2.0 | 0.00 | 0.00 | 0.00 | 57 | 1017.3 |
| 20260504011554 | 69 | 146 | 2.0 | 3.0 | 0.00 | 0.00 | 0.00 | 56 | 1017.5 |
| 20260504011050 | 70 | 150 | 0.0 | 0.0 | 0.00 | 0.00 | 0.00 | 56 | 1017.4 |
| 20260504010545 | 70 | 144 | 2.0 | 2.0 | 0.00 | 0.00 | 0.00 | 55 | 1017.3 |
| 20260504010042 | 70 | 148 | 1.0 | 2.0 | 0.00 | 0.00 | 0.00 | 56 | 1017.4 |
| 20260504005538 | 71 | 156 | 2.0 | 2.0 | 0.00 | 0.00 | 0.00 | 56 | 1017.4 |
| 20260504005036 | 71 | 149 | 1.0 | 2.0 | 0.00 | 0.00 | 0.00 | 54 | 1017.2 |
| 20260504004534 | 72 | 138 | 2.0 | 3.0 | 0.00 | 0.00 | 0.00 | 53 | 1017.1 |
| 20260504004030 | 72 | 153 | 2.0 | 2.0 | 0.00 | 0.00 | 0.00 | 52 | 1017.2 |
| 20260504003526 | 72 | 154 | 0.0 | 0.0 | 0.00 | 0.00 | 0.00 | 52 | 1017.2 |
| 20260504003023 | 73 | 153 | 0.0 | 0.0 | 0.00 | 0.00 | 0.00 | 52 | 1017.4 |
| 20260504002520 | 73 | 151 | 1.0 | 2.0 | 0.00 | 0.00 | 0.00 | 50 | 1017.4 |
| 20260504002018 | 73 | 154 | 2.0 | 2.0 | 0.00 | 0.00 | 0.00 | 50 | 1017.6 |
| 20260504001515 | 73 | 157 | 2.0 | 3.0 | 0.00 | 0.00 | 0.00 | 48 | 1017.3 |
| 20260504001011 | 74 | 156 | 0.0 | 0.0 | 0.00 | 0.00 | 0.00 | 49 | 1017.5 |
| 20260504000508 | 74 | 162 | 4.0 | 5.0 | 0.00 | 0.00 | 0.00 | 47 | 1017.6 |
| 20260504000005 | 74 | 149 | 3.0 | 3.0 | 0.00 | 0.00 | 0.00 | 47 | 1017.6 |
| 20260503235503 | 74 | 164 | 1.0 | 2.0 | 0.00 | 0.00 | 0.00 | 47 | 1017.7 |
| 20260503235000 | 75 | 159 | 1.0 | 3.0 | 0.00 | 0.00 | 0.00 | 47 | 1017.8 |
| 20260503234458 | 75 | 158 | 2.0 | 3.0 | 0.00 | 0.00 | 0.00 | 48 | 1017.8 |
| 20260503233956 | 76 | 154 | 3.0 | 3.0 | 0.00 | 0.00 | 0.00 | 46 | 1017.8 |
| 20260503233452 | 77 | 195 | 3.0 | 5.0 | 0.00 | 0.00 | 0.00 | 46 | 1017.8 |
| 20260503232948 | 77 | 129 | 6.0 | 7.0 | 0.00 | 0.00 | 0.00 | 43 | 1017.9 |
| 20260503232445 | 77 | 157 | 0.0 | 2.0 | 0.00 | 0.00 | 0.00 | 45 | 1017.7 |
| 20260503231943 | 77 | 159 | 4.0 | 5.0 | 0.00 | 0.00 | 0.00 | 46 | 1018.0 |
| 20260503231440 | 78 | 153 | 4.0 | 5.0 | 0.00 | 0.00 | 0.00 | 46 | 1017.8 |
| 20260503230937 | 78 | 153 | 3.0 | 5.0 | 0.00 | 0.00 | 0.00 | 45 | 1018.0 |
| 20260503230433 | 77 | 147 | 4.0 | 7.0 | 0.00 | 0.00 | 0.00 | 44 | 1018.0 |
| 20260503225931 | 77 | 192 | 3.0 | 5.0 | 0.00 | 0.00 | 0.00 | 43 | 1018.1 |
| 20260503225428 | 78 | 141 | 1.0 | 2.0 | 0.00 | 0.00 | 0.00 | 46 | 1018.0 |
| 20260503224923 | 78 | 165 | 2.0 | 3.0 | 0.00 | 0.00 | 0.00 | 44 | 1018.0 |
| 20260503224420 | 77 | 168 | 2.0 | 3.0 | 0.00 | 0.00 | 0.00 | 45 | 1018.1 |
| 20260503223918 | 79 | 140 | 4.0 | 5.0 | 0.00 | 0.00 | 0.00 | 42 | 1018.0 |
| 20260503223416 | 80 | 121 | 3.0 | 3.0 | 0.00 | 0.00 | 0.00 | 39 | 1018.1 |
| 20260503222911 | 80 | 166 | 1.0 | 3.0 | 0.00 | 0.00 | 0.00 | 42 | 1018.1 |
| 20260503222410 | 80 | 204 | 3.0 | 5.0 | 0.00 | 0.00 | 0.00 | 44 | 1018.2 |
| 20260503221907 | 80 | 218 | 3.0 | 5.0 | 0.00 | 0.00 | 0.00 | 40 | 1018.2 |
| 20260503221406 | 80 | 214 | 5.0 | 7.0 | 0.00 | 0.00 | 0.00 | 42 | 1018.5 |
| 20260503220902 | 80 | 163 | 2.0 | 3.0 | 0.00 | 0.00 | 0.00 | 42 | 1018.3 |
| 20260503220358 | 80 | 188 | 5.0 | 5.0 | 0.00 | 0.00 | 0.00 | 45 | 1018.6 |
| 20260503215855 | 81 | 232 | 5.0 | 7.0 | 0.00 | 0.00 | 0.00 | 44 | 1018.5 |
| 20260503215353 | 80 | 112 | 3.0 | 5.0 | 0.00 | 0.00 | 0.00 | 43 | 1018.6 |
| 20260503214850 | 80 | 188 | 4.0 | 5.0 | 0.00 | 0.00 | 0.00 | 42 | 1018.9 |
| 20260503214347 | 80 | 133 | 7.0 | 10.0 | 0.00 | 0.00 | 0.00 | 40 | 1018.6 |
| 20260503213845 | 80 | 223 | 6.0 | 17.0 | 0.00 | 0.00 | 0.00 | 40 | 1019.0 |
| 20260503213342 | 80 | 180 | 2.0 | 3.0 | 0.00 | 0.00 | 0.00 | 41 | 1019.3 |
| 20260503212839 | 80 | 184 | 6.0 | 7.0 | 0.00 | 0.00 | 0.00 | 40 | 1019.4 |
| 20260503212337 | 80 | 129 | 7.0 | 10.0 | 0.00 | 0.00 | 0.00 | 40 | 1019.3 |
| 20260503211834 | 79 | 177 | 5.0 | 7.0 | 0.00 | 0.00 | 0.00 | 43 | 1019.6 |
| 20260503211330 | 79 | 153 | 1.0 | 2.0 | 0.00 | 0.00 | 0.00 | 43 | 1019.5 |
| 20260503210825 | 79 | 140 | 10.0 | 14.0 | 0.00 | 0.00 | 0.00 | 41 | 1019.6 |
| 20260503210323 | 79 | 134 | 5.0 | 9.0 | 0.00 | 0.00 | 0.00 | 43 | 1019.6 |
| 20260503205818 | 80 | 134 | 7.0 | 9.0 | 0.00 | 0.00 | 0.00 | 42 | 1019.4 |
| 20260503205315 | 80 | 142 | 4.0 | 7.0 | 0.00 | 0.00 | 0.00 | 38 | 1019.6 |
| 20260503204811 | 80 | 142 | 4.0 | 7.0 | 0.00 | 0.00 | 0.00 | 40 | 1019.7 |
| 20260503204309 | 79 | 139 | 4.0 | 7.0 | 0.00 | 0.00 | 0.00 | 41 | 1019.9 |
| 20260503203806 | 79 | 147 | 3.0 | 7.0 | 0.00 | 0.00 | 0.00 | 43 | 1020.1 |
| 20260503203303 | 80 | 165 | 5.0 | 7.0 | 0.00 | 0.00 | 0.00 | 39 | 1020.1 |
| 20260503202800 | 80 | 179 | 4.0 | 5.0 | 0.00 | 0.00 | 0.00 | 42 | 1020.4 |
| 20260503202258 | 80 | 145 | 3.0 | 5.0 | 0.00 | 0.00 | 0.00 | 42 | 1020.4 |
| 20260503201756 | 80 | 200 | 5.0 | 7.0 | 0.00 | 0.00 | 0.00 | 40 | 1020.5 |
| 20260503201253 | 80 | 168 | 2.0 | 3.0 | 0.00 | 0.00 | 0.00 | 44 | 1020.4 |
| 20260503200750 | 81 | 154 | 5.0 | 7.0 | 0.00 | 0.00 | 0.00 | 41 | 1020.5 |
| 20260503200245 | 80 | 162 | 2.0 | 3.0 | 0.00 | 0.00 | 0.00 | 44 | 1020.5 |
| 20260503195743 | 80 | 161 | 2.0 | 5.0 | 0.00 | 0.00 | 0.00 | 43 | 1020.6 |
| 20260503195240 | 80 | 209 | 3.0 | 5.0 | 0.00 | 0.00 | 0.00 | 43 | 1020.8 |
| 20260503194738 | 79 | 197 | 6.0 | 7.0 | 0.00 | 0.00 | 0.00 | 45 | 1020.7 |
| 20260503194233 | 79 | 175 | 2.0 | 3.0 | 0.00 | 0.00 | 0.00 | 45 | 1020.9 |
| 20260503193729 | 79 | 169 | 8.0 | 10.0 | 0.00 | 0.00 | 0.00 | 42 | 1020.8 |
| 20260503193226 | 79 | 149 | 7.0 | 7.0 | 0.00 | 0.00 | 0.00 | 39 | 1020.8 |
| 20260503192721 | 79 | 171 | 5.0 | 5.0 | 0.00 | 0.00 | 0.00 | 44 | 1021.1 |
| 20260503192217 | 80 | 180 | 5.0 | 5.0 | 0.00 | 0.00 | 0.00 | 43 | 1021.1 |
| 20260503191714 | 79 | 163 | 4.0 | 9.0 | 0.00 | 0.00 | 0.00 | 43 | 1021.2 |